Location: Bridalveil Moraine
(37.7171°N, 119.6568°W)
Time: 22:20:54
(UTC+00:00)

USA 234 - Visible Passes

Search period start: 19 September 2024 00:00
Search period end: 29 September 2024 00:00
Orbit: 1100 x 1107 km, 123.0° (Epoch: 08 July)

Date Brightness Start Highest point End Pass type
(mag) Time Alt. Az. Time Alt. Az. Time Alt. Az.
19 Sep 4.3 02:59:22 10° SSE 03:05:33 45° SW 03:11:47 10° WNW visible
20 Sep 3.4 02:16:06 10° SE 02:22:40 88° SW 02:29:15 10° NW visible
20 Sep 5.3 04:01:33 10° SSW 04:06:08 20° WSW 04:10:46 10° WNW visible
21 Sep 4.2 03:16:51 10° SSE 03:23:01 44° SW 03:29:15 10° WNW visible
22 Sep 3.3 02:33:34 10° SE 02:40:07 88° SW 02:46:44 10° NW visible
22 Sep 5.2 04:19:02 10° SSW 04:23:36 20° WSW 04:28:12 10° WNW visible
23 Sep 4.1 03:34:34 11° SSE 03:40:29 44° SW 03:46:42 10° WNW visible
24 Sep 3.3 02:51:02 10° SE 02:57:35 87° SW 03:04:11 10° NW visible
24 Sep 5.2 04:37:56 14° SSW 04:41:04 20° WSW 04:45:39 10° WNW visible
25 Sep 3.6 02:08:40 10° ESE 02:14:56 51° NE 02:21:15 10° NW visible
25 Sep 4.1 03:53:52 21° S 03:57:57 44° SW 04:04:09 10° WNW visible
26 Sep 3.2 03:09:46 17° SE 03:15:03 87° SW 03:21:39 10° NW visible
26 Sep 5.0 04:57:09 18° SW 04:58:32 20° WSW 05:03:05 10° WNW visible
27 Sep 3.6 02:26:07 10° ESE 02:32:24 52° NE 02:38:43 10° NW visible
27 Sep 4.1 04:13:02 32° S 04:15:25 43° SW 04:21:37 10° WNW visible
28 Sep 3.2 03:28:52 29° SE 03:32:31 87° SW 03:39:06 10° NW visible
28 Sep 5.1 05:16:14 20° WSW 05:16:14 20° WSW 05:20:32 10° WNW visible
